Regional Weather Roundup
Issued by NWS

Home | Current Version | Previous Version | Text Only | Print | Product List | Glossary Off
Versions: 1 2 3 4 5 6 7 8 9 10 11 12 13 14 15 16 17 18 19 20 21 22 23 24 25 26 27 28 29 30 31 32 33 34 35 36 37 38 39 40 41 42 43 44 45 46 47 48 49 50

000
ASUS43 KDMX 190707
RWRIA

WEATHER ROUNDUP FOR IOWA
NATIONAL WEATHER SERVICE DES MOINES IA
100 AM CST FRI DEC 19 2014

NOTE: "FAIR" INDICATES FEW OR NO CLOUDS BELOW 12,000 FEET WITH NO
SIGNIFICANT WEATHER AND/OR OBSTRUCTIONS TO VISIBILITY.

* - THESE STATIONS ARE NOT NWS STATIONS...THUS NOT UNDER NWS
QUALITY CONTROL.  THEY ALSO DO NOT REPORT WEATHER SUCH
AS PRECIPITATION OR FOG.

IAZ001>003-012>014-020>022-031>034-043>046-190800-
   NORTHWEST IOWA

CITY           SKY/WX    TMP DP  RH WIND       PRES   REMARKS
CARROLL *      CLOUDY    28  27  93 S6        30.24S FOG     WCI  22
CHEROKEE *     CLOUDY    28  28 100 S6        30.22S WCI  22
DENISON *      CLOUDY    30  28  93 S8        30.22S WCI  23
LE MARS *      CLOUDY    30  28  93 S7        30.21F WCI  23
ORANGE CITY *  CLOUDY    28  27  93 S6        30.19F FOG     WCI  22
SHELDON *      CLOUDY    28  28 100 S7        30.19S WCI  21
SIOUX CITY     CLOUDY    31  26  82 S6        30.22F WCI  25
SPENCER        CLOUDY    28  24  85 S8        30.21F WCI  20
STORM LAKE *   CLOUDY    28  27  93 S6        30.22S WCI  22
$$

IAZ055>058-069>071-079>083-090>094-190800-
   SOUTHWEST IOWA

CITY           SKY/WX    TMP DP  RH WIND       PRES   REMARKS
ATLANTIC *     CLOUDY    30  28  93 S6        30.24F WCI  24
AUDUBON *      CLEAR     28  23  80 S5        30.24F WCI  23
CLARINDA *     CLOUDY    30  28  93 S3        30.28S
COUNCIL BLFS * CLOUDY    30  30 100 S7        30.23S FOG     WCI  23
CRESTON *      CLOUDY    28  28 100 S6        30.25S WCI  22
HARLAN  *      CLOUDY    30  30 100 S7        30.27F WCI  23
LAMONI         CLOUDY    28  26  92 SE3       30.26S
RED OAK *      CLOUDY    30  28  93 S6        30.25F WCI  24
SHENANDOAH *   CLOUDY    30  28  93 S3        30.26F
$$

IAZ047>049-059>061-072>074-084-190800-
   CENTRAL IOWA

CITY           SKY/WX    TMP DP  RH WIND       PRES   REMARKS
AMES           CLOUDY    26  21  81 SE3       30.28R
ANKENY *       CLOUDY    27  23  86 S5        30.28S WCI  21
CHARITON *     CLOUDY    28  27  93 S5        30.27S WCI  23
DES MOINES     CLOUDY    28  23  81 S3        30.28S
GRINNELL*      CLOUDY    25  21  86 CALM      30.28R
KNOXVILLE *    CLOUDY    27  23  86 CALM      30.27R
MARSHALLTOWN   CLOUDY    23  20  88 SE3       30.27S
PELLA *        MOCLDY    27  23  86 CALM      30.30S
PERRY *        CLOUDY    28  27  93 S6        30.26S WCI  22
$$

IAZ004>006-015-016-023>025-035-036-190800-
   NORTH CENTRAL IOWA

CITY           SKY/WX    TMP DP  RH WIND       PRES   REMARKS
ALGONA *       CLOUDY    27  23  86 S7        30.24F WCI  19
CLARION *      CLOUDY    25  25 100 S9        30.25F WCI  15
ESTHERVILLE    CLOUDY    25  22  88 S9        30.21F WCI  15
FORT DODGE *   CLOUDY    27  19  74 S3        30.25S
MASON CITY     CLOUDY    23  19  85 S5        30.26F WCI  17
FOREST CITY *  CLOUDY    27  21  80 SE6       30.24S WCI  20
IOWA FALLS *   CLOUDY    25  21  86 S5        30.27S WCI  19
$$

IAZ007>011-017>019-026>030-037>042-050>054-066-190800-
   NORTHEAST IOWA

CITY           SKY/WX    TMP DP  RH WIND       PRES   REMARKS
CEDAR RAPIDS   CLOUDY    24  20  84 CALM      30.27F
CHARLES CITY * CLOUDY    23  19  86 CALM      30.27S
CLINTON *      CLOUDY    16  12  86 CALM      30.32S
DECORAH *      CLOUDY    23  18  80 CALM      30.26S
DUBUQUE        CLOUDY    23  19  85 CALM      30.26F
MONTICELLO *   CLEAR     14  14 100 CALM      30.28F
OELWEIN *      CLOUDY    23  19  86 CALM      30.27S
WATERLOO       CLOUDY    24  19  81 CALM      30.27F
$$

IAZ064-065-067-068-078-190800-
   EAST CENTRAL IOWA

CITY           SKY/WX    TMP DP  RH WIND       PRES   REMARKS
DAVENPORT      PTCLDY    16  12  84 CALM      30.31R
IOWA CITY      CLOUDY    26  20  77 SE5       30.30F WCI  20
MT. PLEASANT * CLOUDY    27  25  93 CALM      30.30S FOG
MUSCATINE *    CLOUDY    27  21  80 CALM      30.31F
QUAD CITIES    CLEAR     18  15  88 CALM      30.31R
$$

IAZ062-063-075>077-085>089-095>099-190800-
   SOUTHEAST IOWA

CITY           SKY/WX    TMP DP  RH WIND       PRES   REMARKS
BURLINGTON     CLOUDY    28  23  81 W3        30.29S
FAIRFIELD *    CLOUDY    27  23  86 CALM      30.29S
FORT MADISON * CLOUDY    28  27  93 CALM      30.30S
KEOKUK *       CLOUDY    28  25  86 CALM      30.29F
OSKALOOSA *    CLOUDY    27  23  86 CALM      30.29R
CENTERVILLE *  CLOUDY    27  27 100 CALM      30.28F
OTTUMWA        CLOUDY    26  22  84 CALM      30.29R
WASHINGTON *   CLOUDY    27  25  93 CALM      30.30S
$$

ABBREVIATIONS USED IN REMARKS
   TC - TEMPERATURES IN CELSIUS
  WCI - WIND CHILL INDEX
   HX - HEAT INDEX
  VSB - VISIBILITY
$$




USA.gov is the U.S. government's official web portal to all federal, state and local government web resources and services.